Regional Weather Roundup
Issued by NWS

Home | Current Version | Previous Version | Text Only | Print | Product List | Glossary Off
Versions: 1 2 3 4 5 6 7 8 9 10 11 12 13 14 15 16 17 18 19 20 21 22 23 24 25 26 27 28 29 30 31 32 33 34 35 36 37 38 39 40 41 42 43 44 45 46 47 48 49 50

707
ASUS43 KLOT 231904
RWRIL

ILLINOIS REGIONAL WEATHER ROUNDUP
NATIONAL WEATHER SERVICE CHICAGO/ROMEOVILLE IL
200 PM CDT MON OCT 23 2017

NOTE: "FAIR" INDICATES FEW OR NO CLOUDS BELOW 12,000 FEET WITH NO
SIGNIFICANT WEATHER AND/OR OBSTRUCTIONS TO VISIBILITY.

* THESE STATIONS ARE NOT UNDER NWS QUALITY CONTROL. THEY ALSO MAY NOT
  REPORT WEATHER SUCH AS PRECIPITATION OR FOG.

ILZ001-002-007-009-015-016-024-232000-
NORTHWEST ILLINOIS

CITY           SKY/WX    TMP DP  RH WIND       PRES   REMARKS
MOLINE         CLOUDY    59  48  67 W9        29.76S
STERLING*        N/A     55  46  71 CALM        N/A
SAVANNA*       CLOUDY    56  48  73 S3        29.76S
$$

ILZ003-004-008-010-011-017-018-232000-
NORTH CENTRAL ILLINOIS

CITY           SKY/WX    TMP DP  RH WIND       PRES   REMARKS
ROCKFORD       CLOUDY    54  44  69 W3        29.77F
FREEPORT*      CLOUDY    55  42  61 CALM      29.77F
ROCHELLE*      CLOUDY    53  44  72 CALM      29.76F
$$

ILZ005-006-012>014-019>023-232000-
NORTHEAST ILLINOIS

CITY           SKY/WX    TMP DP  RH WIND       PRES   REMARKS
CHICAGO-OHARE  CLOUDY    53  49  86 N9        29.71F
CHICAGO-MIDWAY CLOUDY    53  51  93 NW10      29.71F
AURORA         CLOUDY    52  50  93 NW8       29.75F
LANSING*       LGT RAIN  51  50  97 NW10      29.71F
JOLIET*        CLOUDY    54  51  91 CALM      29.74F
WAUKEGAN       CLOUDY    52  50  93 NW6       29.72F
DUPAGE AIRPORT CLOUDY    52  49  89 NW9       29.73F
KANKAKEE*      DRIZZLE   51  51  98 NW8       29.74F
WHEELING       PTSUNNY   53  52  96 N7        29.72F
NORTHERLY ISL    N/A     53  47  79 N8          N/A
$$

LMZ740>746-232000-
SOUTHERN LAKE MICHIGAN

STATION/POSITION SKY/WX   TEMP    WIND        PRES    VSBY  WAVE
                          AIR SEA DIR/SP/G                  HT/PER
                          (F)     (DEG/KT/KT) (MB)    (MI)  (FT/S)
SOUTHERN BUOY              54 59  360/ 16/ 17 1006.8          3/ 4
WILMETTE HARBOR            53 57  330/ 14/ 17   N/A           4/ 5
HARRISON CRIB              54     360/ 16/ 20   N/A
BURNHAM HARBOR             53     300/  7/ 13   N/A
CALUMET HARBOR             51     300/  7/ 10 1005.6F
BURNS HARBOR               54     350/ 20/ 23 1005.8F
MICHIGAN CITY              53     340/ 25/ 27   N/A
MICHIGAN CITY 6N           53 57  340/ 19/ 25   N/A           8/ 6
ST. JOSEPH                 54 58   10/ 21/ 27 1004.6F         6/ 6
$$

ILZ025>027-034>036-040-047-049-050-058-095>099-232000-
WEST-CENTRAL ILLINOIS

CITY           SKY/WX    TMP DP  RH WIND       PRES   REMARKS
QUINCY         SUNNY     65  44  46 W13       29.78F
MACOMB*        CLOUDY    63  48  59 W13       29.80S
JACKSONVILLE*  SUNNY     65  44  47 W6        29.79F
$$

ILZ028>032-037-038-041>044-048-051>054-059>061-232000-
CENTRAL ILLINOIS

CITY           SKY/WX    TMP DP  RH WIND       PRES   REMARKS
BLOOMINGTON    PTSUNNY   52  48  86 W9        29.79F
DECATUR        LGT RAIN  52  48  86 NW9       29.79F
PEORIA         CLOUDY    56  46  69 W3        29.78F
LACON*         PTSUNNY   54  46  73 SW5       29.78F
LINCOLN*       CLOUDY    55  48  78 CALM      29.79F
SPRINGFIELD    CLOUDY    58  47  66 VRB3      29.81F
TAYLORVILLE    CLOUDY    56  42  59 NW6       29.80F
$$

ILZ033-039-045-046-055>057-062-063-232000-
EAST-CENTRAL ILLINOIS

CITY           SKY/WX    TMP DP  RH WIND       PRES   REMARKS
DANVILLE*      CLOUDY    51  47  89 NW15G22   29.72R
MATTOON        LGT RAIN  52  52 100 NW20      29.77F
$$

ILZ079-100>102-232000-
SOUTHWEST ILLINOIS

CITY           SKY/WX    TMP DP  RH WIND       PRES   REMARKS
ALTON          MOSUNNY   63  50  63 NW5       29.83F
CAHOKIA*       SUNNY     68  39  34 W6        29.82F
SPARTA*        CLOUDY    60  48  64 W5        29.86F
$$

ILZ064>066-069>071-074>076-080>082-084>086-088>090-092>094-232000-
SOUTH-CENTRAL ILLINOIS

CITY           SKY/WX    TMP DP  RH WIND       PRES   REMARKS
CARBONDALE     CLOUDY    57  51  80 W5        29.87S
EFFINGHAM*     CLOUDY    53  52  95 W12G17    29.80S
MARION         CLOUDY    55  48  76 W12       29.87F
MT. VERNON     PTSUNNY   56  44  64 VRB7      29.83R
CENTRALIA*     DRIZZLE   56  50  82 W12       29.82S
SALEM*         LGT RAIN  56  47  72 NW8       29.82S
METROPOLIS*    CLOUDY    59  42  53 W9        29.88F
$$

ILZ067-068-072-073-078-083-087-091-232000-
SOUTHEAST ILLINOIS

CITY           SKY/WX    TMP DP  RH WIND       PRES   REMARKS
LAWRENCEVILLE  CLOUDY    57  53  86 NW14      29.74R
FLORA*         CLOUDY    57  51  79 NW13G23   29.80R
FAIRFIELD*     CLOUDY    56  53  89 W5        29.79S
HARRISBURG*    CLOUDY    55  48  75 S12       29.84S
ROBINSON*      CLOUDY    55  53  92 N10G18    29.75R
CARMI*         CLOUDY    54  53  96 W10       29.80R
$$

ABBREVIATIONS USED IN REMARKS
   TC - TEMPERATURE IN CELSIUS
  WCI - WIND CHILL INDEX
   HX - HEAT INDEX
  VSB - VISIBILITY
$$





USA.gov is the U.S. government's official web portal to all federal, state and local government web resources and services.